| time (UTC) | temp C | wind direction | speed KPH | gust KPH | rain 1hr cm | rain 24hr cm | rain mn cm | humidity % | barometer mb |
| 20260507015026 | 6 | 63 | 0.0 | 1.6 | 0.00 | 0.00 | 0.00 | 88 | 1012.8 |
| 20260507014019 | 6 | 63 | 0.0 | 1.6 | 0.00 | 0.00 | 0.00 | 88 | 1012.7 |
| 20260507013011 | 6 | 63 | 0.0 | 1.6 | 0.00 | 0.00 | 0.00 | 88 | 1012.7 |
| 20260507012012 | 6 | 63 | 0.0 | 1.6 | 0.00 | 0.00 | 0.00 | 88 | 1012.7 |
| 20260507011449 | 6 | 63 | 0.0 | 3.2 | 0.00 | 0.00 | 0.00 | 88 | 1012.6 |
| 20260507005941 | 6 | 63 | 0.0 | 3.2 | 0.00 | 0.00 | 0.00 | 87 | 1012.6 |
| 20260507004912 | 6 | 63 | 0.0 | 3.2 | 0.00 | 0.00 | 0.00 | 87 | 1012.6 |
| 20260507003907 | 6 | 63 | 0.0 | 3.2 | 0.00 | 0.00 | 0.00 | 87 | 1012.6 |
| 20260507002828 | 6 | 63 | 0.0 | 3.2 | 0.00 | 0.00 | 0.00 | 87 | 1012.5 |
| 20260507001802 | 6 | 63 | 0.0 | 3.2 | 0.00 | 0.00 | 0.00 | 86 | 1012.5 |
| 20260507000802 | 6 | 63 | 0.0 | 3.2 | 0.00 | 0.00 | 0.00 | 86 | 1012.5 |
| 20260506235802 | 7 | 63 | 0.0 | 0.0 | 0.00 | 0.00 | 0.00 | 85 | 1012.6 |
| 20260506234757 | 7 | 63 | 0.0 | 3.2 | 0.00 | 0.00 | 0.00 | 85 | 1012.6 |
| 20260506233725 | 7 | 63 | 0.0 | 3.2 | 0.00 | 0.00 | 0.00 | 84 | 1012.6 |
| 20260506232658 | 7 | 63 | 0.0 | 6.4 | 0.00 | 0.00 | 0.00 | 84 | 1012.6 |
| 20260506231656 | 7 | 63 | 1.6 | 6.4 | 0.00 | 0.00 | 0.00 | 84 | 1012.5 |
| 20260506230658 | 8 | 63 | 0.0 | 4.8 | 0.00 | 0.00 | 0.00 | 84 | 1012.6 |
| 20260506225633 | 8 | 63 | 0.0 | 3.2 | 0.00 | 0.00 | 0.00 | 83 | 1012.6 |
| 20260506224600 | 8 | 63 | 0.0 | 3.2 | 0.00 | 0.00 | 0.00 | 83 | 1012.5 |
| 20260506223559 | 8 | 63 | 0.0 | 4.8 | 0.00 | 0.00 | 0.00 | 83 | 1012.5 |
| 20260506222557 | 8 | 63 | 0.0 | 4.8 | 0.00 | 0.00 | 0.00 | 82 | 1012.4 |
| 20260506221558 | 8 | 63 | 0.0 | 4.8 | 0.00 | 0.00 | 0.00 | 82 | 1012.4 |
| 20260506220541 | 8 | 63 | 0.0 | 8.0 | 0.00 | 0.00 | 0.00 | 81 | 1012.2 |
| 20260506215520 | 9 | 63 | 1.6 | 6.4 | 0.00 | 0.00 | 0.00 | 80 | 1012.2 |
| 20260506214446 | 9 | 63 | 0.0 | 6.4 | 0.00 | 0.00 | 0.00 | 79 | 1012.1 |
| 20260506213420 | 9 | 63 | 0.0 | 4.8 | 0.00 | 0.00 | 0.00 | 79 | 1012.0 |
| 20260506212355 | 10 | 63 | 0.0 | 1.6 | 0.00 | 0.00 | 0.00 | 78 | 1012.0 |
| 20260506211357 | 10 | 63 | 0.0 | 3.2 | 0.00 | 0.00 | 0.00 | 76 | 1011.9 |
| 20260506210741 | 10 | 63 | 0.0 | 3.2 | 0.00 | 0.00 | 0.00 | 74 | 1011.7 |
| 20260506210407 | 10 | 63 | 0.0 | 6.4 | 0.00 | 0.00 | 0.00 | 75 | 1011.7 |
| 20260506204257 | 10 | 63 | 1.6 | 8.0 | 0.00 | 0.00 | 0.00 | 73 | 1011.7 |
| 20260506203229 | 10 | 63 | 1.6 | 11.3 | 0.00 | 0.00 | 0.00 | 73 | 1011.7 |
| 20260506202629 | 10 | 63 | 1.6 | 8.0 | 0.00 | 0.00 | 0.00 | 73 | 1011.4 |
| 20260506202510 | 11 | 63 | 0.0 | 6.4 | 0.00 | 0.00 | 0.00 | 73 | 1011.4 |
| 20260506202313 | 10 | 63 | 1.6 | 8.0 | 0.00 | 0.00 | 0.00 | 72 | 1011.5 |
| 20260506195140 | 11 | 63 | 1.6 | 8.0 | 0.00 | 0.00 | 0.00 | 73 | 1011.3 |
| 20260506194550 | 11 | 66 | 1.6 | 6.4 | 0.00 | 0.00 | 0.00 | 76 | 1011.0 |
| 20260506194219 | 11 | 63 | 1.6 | 9.7 | 0.00 | 0.00 | 0.00 | 74 | 1011.2 |
| 20260506192100 | 11 | 66 | 0.0 | 3.2 | 0.00 | 0.00 | 0.00 | 77 | 1010.8 |
| 20260506191041 | 11 | 66 | 0.0 | 0.0 | 0.00 | 0.00 | 0.00 | 79 | 1010.7 |
| 20260506190014 | 11 | 66 | 0.0 | 0.0 | 0.00 | 0.00 | 0.00 | 79 | 1010.5 |
| 20260506184954 | 11 | 66 | 0.0 | 0.0 | 0.00 | 0.00 | 0.00 | 78 | 1010.3 |
| 20260506183931 | 11 | 66 | 0.0 | 0.0 | 0.00 | 0.00 | 0.00 | 76 | 1010.3 |
| 20260506182901 | 11 | 66 | 0.0 | 0.0 | 0.00 | 0.00 | 0.00 | 74 | 1010.2 |
| 20260506181851 | 11 | 66 | 0.0 | 0.0 | 0.00 | 0.00 | 0.00 | 71 | 1010.1 |
| 20260506180825 | 12 | 66 | 0.0 | 3.2 | 0.00 | 0.00 | 0.00 | 70 | 1010.1 |
| 20260506175805 | 12 | 66 | 0.0 | 3.2 | 0.00 | 0.00 | 0.00 | 69 | 1009.9 |
| 20260506174805 | 12 | 66 | 0.0 | 4.8 | 0.00 | 0.00 | 0.00 | 68 | 1009.7 |
| 20260506173757 | 12 | 66 | 0.0 | 3.2 | 0.00 | 0.00 | 0.00 | 67 | 1009.4 |
| 20260506172745 | 12 | 66 | 1.6 | 4.8 | 0.00 | 0.00 | 0.00 | 67 | 1009.4 |
| 20260506171744 | 12 | 66 | 1.6 | 4.8 | 0.00 | 0.00 | 0.00 | 66 | 1009.3 |
| 20260506170746 | 12 | 66 | 1.6 | 4.8 | 0.00 | 0.00 | 0.00 | 66 | 1009.3 |
| 20260506165738 | 12 | 66 | 1.6 | 6.4 | 0.00 | 0.00 | 0.00 | 66 | 1009.4 |
| 20260506164736 | 12 | 66 | 1.6 | 6.4 | 0.00 | 0.00 | 0.00 | 66 | 1009.4 |
| 20260506163721 | 12 | 66 | 1.6 | 6.4 | 0.00 | 0.00 | 0.00 | 65 | 1009.5 |
| 20260506162721 | 12 | 66 | 3.2 | 6.4 | 0.00 | 0.00 | 0.00 | 64 | 1009.4 |
| 20260506161711 | 12 | 66 | 3.2 | 8.0 | 0.00 | 0.00 | 0.00 | 63 | 1009.4 |
| 20260506160701 | 12 | 66 | 1.6 | 9.7 | 0.00 | 0.00 | 0.00 | 63 | 1009.2 |
| 20260506155701 | 12 | 66 | 1.6 | 9.7 | 0.00 | 0.00 | 0.00 | 62 | 1009.4 |
| 20260506155030 | 13 | 64 | 1.6 | 6.4 | 0.00 | 0.00 | 0.00 | 60 | 1009.2 |
| 20260506154715 | 13 | 64 | 1.6 | 4.8 | 0.00 | 0.00 | 0.00 | 61 | 1009.2 |
| 20260506152558 | 13 | 64 | 1.6 | 8.0 | 0.00 | 0.00 | 0.00 | 62 | 1009.2 |
| 20260506151527 | 13 | 64 | 0.0 | 4.8 | 0.00 | 0.00 | 0.00 | 62 | 1009.2 |
| 20260506150520 | 12 | 64 | 3.2 | 6.4 | 0.00 | 0.00 | 0.00 | 60 | 1009.0 |
| 20260506145947 | 12 | 66 | 3.2 | 9.7 | 0.00 | 0.00 | 0.00 | 61 | 1009.1 |
| 20260506144510 | 13 | 66 | 3.2 | 8.0 | 0.00 | 0.00 | 0.00 | 59 | 1009.1 |
| 20260506143453 | 12 | 66 | 3.2 | 11.3 | 0.00 | 0.00 | 0.00 | 61 | 1009.1 |
| 20260506142453 | 12 | 68 | 3.2 | 8.0 | 0.00 | 0.00 | 0.00 | 60 | 1009.1 |
| 20260506141455 | 12 | 68 | 3.2 | 9.7 | 0.00 | 0.00 | 0.00 | 60 | 1009.2 |
| 20260506140452 | 12 | 67 | 3.2 | 12.9 | 0.00 | 0.00 | 0.00 | 59 | 1009.2 |
| 20260506135452 | 12 | 63 | 4.8 | 16.1 | 0.00 | 0.00 | 0.00 | 59 | 1009.1 |
| 20260506134450 | 13 | 105 | 6.4 | 16.1 | 0.00 | 0.00 | 0.00 | 59 | 1009.0 |
| 20260506133423 | 13 | 71 | 4.8 | 16.1 | 0.00 | 0.00 | 0.00 | 60 | 1009.1 |
| 20260506132424 | 13 | 79 | 3.2 | 14.5 | 0.00 | 0.00 | 0.00 | 61 | 1009.1 |
| 20260506131403 | 12 | 62 | 4.8 | 14.5 | 0.00 | 0.00 | 0.00 | 62 | 1009.1 |
| 20260506130404 | 12 | 66 | 4.8 | 12.9 | 0.00 | 0.00 | 0.00 | 62 | 1009.1 |
| 20260506125401 | 12 | 81 | 3.2 | 11.3 | 0.00 | 0.00 | 0.00 | 63 | 1008.9 |
| 20260506124402 | 12 | 80 | 3.2 | 12.9 | 0.00 | 0.00 | 0.00 | 64 | 1009.0 |
| 20260506123352 | 12 | 81 | 4.8 | 11.3 | 0.00 | 0.00 | 0.00 | 62 | 1009.0 |
| 20260506122330 | 12 | 69 | 4.8 | 12.9 | 0.00 | 0.00 | 0.00 | 63 | 1009.0 |
| 20260506121749 | 12 | 76 | 4.8 | 12.9 | 0.00 | 0.00 | 0.00 | 61 | 1008.8 |
| 20260506121632 | 12 | 77 | 4.8 | 14.5 | 0.00 | 0.00 | 0.00 | 59 | 1008.7 |
| 20260506121413 | 12 | 57 | 6.4 | 17.7 | 0.00 | 0.00 | 0.00 | 62 | 1008.9 |
| 20260506114240 | 12 | 57 | 6.4 | 16.1 | 0.00 | 0.00 | 0.00 | 59 | 1008.7 |
| 20260506113255 | 12 | 75 | 3.2 | 11.3 | 0.00 | 0.00 | 0.00 | 60 | 1008.7 |
| 20260506112241 | 12 | 53 | 4.8 | 14.5 | 0.00 | 0.00 | 0.00 | 59 | 1008.7 |
| 20260506111213 | 12 | 64 | 3.2 | 11.3 | 0.00 | 0.00 | 0.00 | 59 | 1008.6 |
| 20260506110206 | 12 | 61 | 4.8 | 12.9 | 0.00 | 0.00 | 0.00 | 59 | 1008.6 |
| 20260506105202 | 12 | 62 | 4.8 | 12.9 | 0.00 | 0.00 | 0.00 | 59 | 1008.6 |
| 20260506104140 | 12 | 59 | 4.8 | 16.1 | 0.00 | 0.00 | 0.00 | 58 | 1008.6 |
| 20260506103131 | 12 | 71 | 4.8 | 17.7 | 0.00 | 0.00 | 0.00 | 56 | 1008.6 |
| 20260506102136 | 12 | 76 | 6.4 | 20.9 | 0.00 | 0.00 | 0.00 | 57 | 1008.5 |
| 20260506101120 | 12 | 50 | 4.8 | 19.3 | 0.00 | 0.00 | 0.00 | 60 | 1008.3 |
| 20260506100127 | 12 | 57 | 4.8 | 16.1 | 0.00 | 0.00 | 0.00 | 61 | 1008.3 |
| 20260506095116 | 12 | 59 | 3.2 | 12.9 | 0.00 | 0.00 | 0.00 | 62 | 1008.4 |
| 20260506094112 | 12 | 51 | 4.8 | 14.5 | 0.00 | 0.00 | 0.00 | 65 | 1008.3 |
| 20260506093108 | 12 | 64 | 4.8 | 14.5 | 0.00 | 0.00 | 0.00 | 67 | 1008.2 |
| 20260506092040 | 11 | 61 | 4.8 | 12.9 | 0.00 | 0.00 | 0.00 | 69 | 1008.2 |
| 20260506091031 | 11 | 66 | 4.8 | 17.7 | 0.00 | 0.00 | 0.00 | 71 | 1008.2 |
| 20260506085959 | 11 | 57 | 4.8 | 12.9 | 0.00 | 0.00 | 0.00 | 73 | 1008.1 |
| 20260506085001 | 11 | 59 | 1.6 | 8.0 | 0.00 | 0.00 | 0.00 | 79 | 1008.1 |
| 20260506084010 | 11 | 59 | 3.2 | 8.0 | 0.00 | 0.00 | 0.00 | 78 | 1008.1 |
| 20260506082948 | 11 | 59 | 1.6 | 8.0 | 0.00 | 0.00 | 0.00 | 78 | 1007.9 |
| 20260506081940 | 11 | 61 | 1.6 | 8.0 | 0.00 | 0.00 | 0.00 | 78 | 1007.9 |
| 20260506081321 | 11 | 59 | 3.2 | 6.4 | 0.00 | 0.00 | 0.00 | 78 | 1007.8 |
| 20260506080950 | 11 | 57 | 3.2 | 11.3 | 0.00 | 0.00 | 0.00 | 78 | 1007.9 |
| 20260506073257 | 11 | 59 | 3.2 | 12.9 | 0.00 | 0.00 | 0.00 | 78 | 1007.7 |
| 20260506072922 | 11 | 53 | 3.2 | 12.9 | 0.00 | 0.00 | 0.00 | 77 | 1007.6 |
| 20260506070826 | 11 | 59 | 1.6 | 9.7 | 0.00 | 0.00 | 0.00 | 79 | 1007.7 |
| 20260506061741 | 10 | 55 | 1.6 | 9.7 | 0.00 | 0.00 | 0.00 | 83 | 1007.4 |
| 20260506061125 | 10 | 57 | 1.6 | 12.9 | 0.00 | 0.00 | 0.00 | 85 | 1007.4 |
| 20260506060758 | 10 | 57 | 3.2 | 11.3 | 0.00 | 0.00 | 0.00 | 84 | 1007.4 |
| 20260506050603 | 9 | 57 | 0.0 | 6.4 | 0.00 | 0.00 | 0.00 | 86 | 1007.2 |
| 20260506044522 | 9 | 57 | 1.6 | 4.8 | 0.00 | 0.00 | 0.00 | 86 | 1007.4 |
| 20260506043506 | 9 | 57 | 1.6 | 8.0 | 0.00 | 0.00 | 0.00 | 86 | 1007.3 |
| 20260506042458 | 9 | 57 | 1.6 | 6.4 | 0.00 | 0.00 | 0.00 | 87 | 1007.3 |
| 20260506041507 | 9 | 57 | 0.0 | 6.4 | 0.00 | 0.00 | 0.00 | 86 | 1007.4 |
| 20260506040452 | 9 | 57 | 0.0 | 4.8 | 0.00 | 0.00 | 0.00 | 87 | 1007.4 |
| 20260506035421 | 9 | 57 | 0.0 | 4.8 | 0.00 | 0.00 | 0.00 | 87 | 1007.4 |
| 20260506034346 | 9 | 57 | 0.0 | 3.2 | 0.00 | 0.00 | 0.00 | 87 | 1007.5 |
| 20260506033341 | 9 | 57 | 0.0 | 4.8 | 0.00 | 0.00 | 0.00 | 86 | 1007.5 |
| 20260506032332 | 9 | 57 | 0.0 | 4.8 | 0.00 | 0.00 | 0.00 | 87 | 1007.6 |
| 20260506031323 | 9 | 57 | 0.0 | 3.2 | 0.00 | 0.00 | 0.00 | 87 | 1007.7 |
| 20260506030313 | 9 | 57 | 0.0 | 3.2 | 0.00 | 0.00 | 0.00 | 87 | 1007.8 |
| 20260506030226 | 9 | 57 | 1.6 | 8.0 | 0.00 | 0.00 | 0.00 | 87 | 1007.9 |
| 20260506024234 | 9 | 57 | 0.0 | 8.0 | 0.00 | 0.00 | 0.00 | 87 | 1008.0 |
| 20260506023231 | 9 | 57 | 1.6 | 6.4 | 0.00 | 0.00 | 0.00 | 88 | 1008.0 |
| 20260506022232 | 9 | 57 | 0.0 | 6.4 | 0.00 | 0.00 | 0.00 | 88 | 1008.0 |
| 20260506021213 | 8 | 57 | 1.6 | 8.0 | 0.00 | 0.00 | 0.00 | 89 | 1008.1 |
| 20260506020152 | 8 | 57 | 1.6 | 6.4 | 0.00 | 0.00 | 0.00 | 89 | 1008.1 |
| 20260506015146 | 8 | 57 | 0.0 | 4.8 | 0.00 | 0.00 | 0.00 | 90 | 1008.3 |